Home   Weather   Taiyuan   Past weeks

Flag for China Past Weather in Taiyuan, Shanxi, China — Yesterday and Last 2 Weeks

Now
30 °F

Passing clouds.


Feels Like: 27 °F
Forecast: 11 / 33 °F
Wind: 3 mph from Southwest

Location: Taiyuan Airport

Current Time: Jan 20, 2017 at 4:11:49 pm

Latest Report: Jan 20, 2017 at 3:30 pm


Visibility: N/A

Pressure: 30.30 "Hg (27.44 "Hg at 790m altitude)

Humidity: 17%

Dew Point: -9 °F

Location of TaiyuanLocation

Past Weather in Taiyuan — Graph

°F

Taiyuan Temperature Yesterday

Maximum temperature yesterday: 28 °F (at 4:00 am)
Minimum temperature yesterday: 18 °F (at 9:00 pm)
Average temperature yesterday: 23 °F

High & Low Weather Summary for the Past Weeks

 TemperatureHumidityPressure
High41 °F (Jan 12, 3:30 pm)100% (Jan 7, 4:30 am)30.51 "Hg (Jan 7, 4:30 am)
Low5 °F (Jan 20, 5:30 am)18% (Jan 10, 2:30 pm)30.04 "Hg (Jan 12, 3:30 pm)
Average28 °F57%30.24 "Hg
* Reported Jan 5 3:00 pm — Jan 20 3:00 pm, Taiyuan, Weather by CustomWeather, © 2017

Note: Actual official high and low records may vary slightly from our data, if they occured in-between our weather recording intervals... More about our weather records

Advertising

Taiyuan Weather History for the Previous 24 Hours

Scroll right to see more
 ConditionsComfort  
Time TempWeatherWind HumidityBarometerVisibility
3:00 pm
Fri, Jan 20
28 °FSunny.3 mph18%30.33 "Hg10 mi
2:30 pm28 °FPassing clouds.6 mph18%30.33 "HgN/A
2:00 pm28 °FPassing clouds.6 mph20%30.33 "HgN/A
1:30 pm27 °FSunny.3 mph22%30.36 "Hg10 mi
1:00 pm27 °FPassing clouds.6 mph18%30.39 "HgN/A
12:30 pm25 °FSunny.3 mph23%30.39 "Hg10 mi
12:00 pm25 °FSunny.3 mph21%30.42 "Hg10 mi
11:30 am21 °FSunny.3 mph27%30.45 "Hg10 mi
11:00 am19 °FPassing clouds.3 mph29%30.48 "HgN/A
10:30 am19 °FPassing clouds.3 mph29%30.51 "HgN/A
10:00 am18 °FSunny.1 mph32%30.51 "Hg10 mi
9:30 am16 °FSunny.3 mph41%30.51 "Hg10 mi
9:00 am12 °FPassing clouds.3 mph44%30.51 "HgN/A
8:30 am9 °FSunny.3 mph56%30.51 "Hg10 mi
8:00 am7 °FSunny.1 mph51%30.51 "Hg10 mi
7:30 am7 °FClear.1 mph56%30.51 "Hg10 mi
7:00 am5 °FClear.1 mph55%30.51 "Hg10 mi
6:30 am7 °FClear.3 mph47%30.48 "Hg10 mi
6:00 am9 °FClear.6 mph43%30.48 "Hg10 mi
5:30 am5 °FClear.3 mph46%30.48 "Hg10 mi
5:00 am7 °FClear.1 mph43%30.48 "Hg10 mi
4:30 am9 °FClear.1 mph43%30.48 "Hg10 mi
4:00 am9 °FClear.No wind36%30.48 "Hg10 mi
3:30 am14 °FClear.3 mph28%30.51 "Hg10 mi
3:00 am12 °FClear.6 mph28%30.51 "Hg10 mi
2:30 am14 °FClear.3 mph28%30.48 "Hg10 mi
2:00 am16 °FClear.6 mph24%30.48 "Hg10 mi
1:30 am16 °FClear.10 mph24%30.48 "Hg10 mi
1:00 am16 °FClear.10 mph24%30.48 "Hg10 mi
12:30 am18 °FClear.13 mph22%30.48 "Hg10 mi
12:00 am18 °FClear.10 mph22%30.48 "Hg10 mi
11:30 pm
Thu, Jan 19
18 °FClear.10 mph22%30.51 "Hg10 mi
11:00 pm18 °FClear.10 mph22%30.51 "Hg10 mi
10:30 pm18 °FClear.10 mph24%30.51 "Hg10 mi
10:00 pm19 °FClear.10 mph22%30.51 "Hg10 mi
9:30 pm18 °FClear.8 mph24%30.51 "Hg10 mi
9:00 pm18 °FClear.13 mph24%30.51 "Hg10 mi
8:30 pm19 °FClear.15 mph22%30.51 "Hg10 mi
8:00 pm19 °FPassing clouds.13 mph22%30.48 "HgN/A
7:30 pm19 °FClear.17 mph22%30.48 "Hg10 mi
7:00 pm21 °FClear.17 mph23%30.45 "Hg10 mi
6:30 pm21 °FClear.17 mph23%30.45 "Hg10 mi
6:00 pm23 °FClear.20 mph21%30.42 "Hg10 mi
5:30 pm23 °FSunny.15 mph21%30.42 "Hg10 mi
5:00 pm25 °FSunny.17 mph20%30.42 "Hg10 mi
4:30 pm25 °FSunny.17 mph20%30.42 "Hg10 mi
4:00 pm25 °FSunny.17 mph18%30.39 "Hg10 mi
Weather by CustomWeather, © 2017

See weather overviewHow to use our weather pages